Location: Im Fang
(46.6019°N, 7.2397°E)
Time: 11:26:29
(UTC+00:00)

STARLINK 1023 - Pass Details

Date: 08 December 2019
Orbit: 345 x 354 km, 53.0° (Epoch: 21 January)

Event Time Altitude Azimuth Distance (km) Brightness Sun altitude
Exits shadow 05:25:54 45° 298° (WNW) 504 3.0 -15.7°
Maximum altitude 05:26:42 87° 209° (SSW) 365 2.6 -15.6°
Drops below altitude 10° 05:29:39 10° 122° (ESE) 1,328 6.8 -15.1°
Sets 05:31:39 0° 122° (ESE) 2,163 8.3 -14.8°
